Location: Julian California
(33.0790°N, 116.6010°W)
Time: 14:18:32
(UTC-07:00)

Spot 2 Rocket - Pass Details

Date: 14 June 2018
Orbit: 757 x 772 km, 98.7° (Epoch: 19 June)

Event Time Altitude Azimuth Distance (km) Brightness Sun altitude
Exits shadow 20:57:40 10° 160° (SSE) 2,256 5.4 -11.5°
Maximum altitude 21:02:37 76° 75° (ENE) 780 3.4 -12.3°
Drops below altitude 10° 21:07:39 10° 351° (N) 2,291 6.7 -13.2°
Sets 21:09:58 0° 350° (N) 3,221 7.6 -13.5°
